Regional Weather Roundup
Issued by NWS State College, PA

Home | Current Version | Previous Version | Text Only | Print | Product List | Glossary Off
Versions: 1 2 3 4 5 6 7 8 9 10 11 12 13 14 15 16 17 18 19 20 21 22 23 24 25 26 27 28 29 30 31 32 33 34 35 36 37 38 39 40 41 42 43 44 45 46 47 48 49 50

004
ASUS41 KCTP 280510
RWRCTP

REGIONAL WEATHER ROUNDUP
NATIONAL WEATHER SERVICE STATE COLLEGE PA
100 AM EDT SUN MAY 28 2017

Note: "fair" indicates few or no clouds below 12,000 feet with no
significant weather and/or obstructions to visibility.

* = STATION THAT DOES NOT REPORT PRECIPITATION /E.G. RAIN...SNOW...ETC/
    THUNDER OR FOG.

PAZ002>004-007>009-013>016-020>023-029>032-280600-
WESTERN PENNSYLVANIA

CITY           SKY/WX    TMP DP  RH WIND       PRES   REMARKS
ERIE           CLEAR     53  50  89 CALM      29.88F
MEADVILLE      CLEAR     53  51  93 CALM      29.89F
FRANKLIN*      CLEAR     55  50  82 E5        29.90F
NEW CASTLE     FAIR      56  54  93 CALM      29.89F
BEAVER COUNTY  NOT AVBL
BUTLER*        CLOUDY    57  55  94 NE3       29.89F
PITTSBURGH INT CLOUDY    61  61 100 CALM      29.87F
PITTSBURGH     CLOUDY    61  59  93 SE3       29.87F FOG
INDIANA*       PTCLDY    55  55 100 CALM      29.93S FOG
LATROBE        FOG       55  55 100 CALM      29.89F VSB<1/4
WASHINGTON CO* CLOUDY    54  54 100 CALM      29.89F VSB<1/4
$$

PAZ004>006-010>012-017>019-024>028-033>037-041-042-045-046-049>053-280600-
CENTRAL PENNSYLVANIA

CITY           SKY/WX    TMP DP  RH WIND       PRES   REMARKS
BRADFORD       PTCLDY    53  52  96 CALM      29.93F
DUBOIS         CLEAR     56  53  90 CALM      29.89F
CLEARFIELD     CLEAR     57  56  96 CALM      29.90F
JOHNSTOWN      CLEAR     58  56  93 S3        29.92F
ALTOONA        FOG       59  59 100 CALM      29.92S VSB 1/2
STATE COLLEGE  CLEAR     60  58  92 CALM      29.91F
WILLIAMSPORT   CLOUDY    62  57  83 CALM      29.90R
SELINSGROVE    CLOUDY    58  57  97 CALM      29.92R
FT INDIANTOWN  CLEAR     55  55 100 NE3       29.92R
CAPITAL CITY   CLEAR     59  55  87 CALM      29.90F
HARRISBURG     PTCLDY    60  58  92 E3        29.89F
YORK           FOG       56  56 100 CALM      29.91F VSB 1/4
$$

PAZ038>040-043-044-047-048-054-055-060>062-067>071-280600-
EASTERN PENNSYLVANIA

CITY           SKY/WX    TMP DP  RH WIND       PRES   REMARKS
SCRANTON       CLOUDY    62  56  80 E5        29.92S
MOUNT POCONO   CLOUDY    56  55  97 CALM      29.94S
ALLENTOWN      CLEAR     56  52  86 NW5       29.91S
QUAKERTOWN*    CLEAR     54  54 100 CALM      29.92S
READING        CLEAR     58  57  97 CALM      29.90S
LANCASTER      CLEAR     59  58  96 CALM      29.92S
COATESVILLE    PTCLDY    61  61 100 CALM      29.93F FOG
POTTSTOWN      CLEAR     56  54  93 N3        29.93S
BLUE BELL      CLEAR     55  55 100 CALM      29.92S
DOYLESTOWN     CLEAR     56  55  97 CALM      29.90F
WILLOW GROVE   NOT AVBL
NORTH PHILA    CLOUDY    67  60  78 SW3       29.91F
PHILADELPHIA   CLOUDY    65  60  84 SW5       29.91F
$$




USA.gov is the U.S. government's official web portal to all federal, state and local government web resources and services.